| time (UTC) | temp C | wind direction | speed KPH | gust KPH | rain 1hr cm | rain 24hr cm | rain mn cm | humidity % | barometer mb |
| 20260901030004 | 13 | 228 | 0.0 | 0.0 | 0.03 | 0.36 | 0.03 | 93 | 1008.6 |
| 20260901024503 | 13 | 228 | 0.0 | 0.0 | 0.00 | 0.33 | 0.00 | 92 | 1008.5 |
| 20260901023002 | 13 | 228 | 0.0 | 0.0 | 0.00 | 0.33 | 0.00 | 93 | 1008.5 |
| 20260901021501 | 13 | 227 | 0.0 | 0.0 | 0.00 | 0.33 | 0.00 | 92 | 1008.5 |
| 20260901020100 | 13 | 226 | 0.0 | 0.0 | 0.00 | 0.33 | 0.00 | 92 | 1008.4 |
| 20260901014559 | 14 | 226 | 0.0 | 0.0 | 0.00 | 0.33 | 0.00 | 92 | 1008.3 |
| 20260901013116 | 14 | 226 | 0.0 | 0.0 | 0.00 | 0.33 | 0.00 | 92 | 1008.3 |
| 20260901011556 | 13 | 226 | 0.0 | 0.0 | 0.00 | 0.33 | 0.00 | 92 | 1008.1 |
| 20260901010057 | 14 | 226 | 0.0 | 0.0 | 0.00 | 0.33 | 0.00 | 92 | 1008.1 |
| 20260901004552 | 14 | 226 | 0.0 | 0.0 | 0.00 | 0.33 | 0.00 | 92 | 1008.1 |
| 20260901003052 | 14 | 228 | 0.0 | 0.0 | 0.00 | 0.33 | 0.00 | 92 | 1008.1 |
| 20260901001553 | 14 | 237 | 0.0 | 0.0 | 0.00 | 0.33 | 0.00 | 92 | 1008.1 |
| 20260901000050 | 14 | 237 | 0.0 | 4.8 | 0.00 | 0.33 | 0.00 | 92 | 1008.1 |
| 20260831234553 | 14 | 246 | 0.0 | 0.0 | 0.00 | 0.33 | 0.00 | 91 | 1008.0 |
| 20260831233054 | 14 | 246 | 0.0 | 0.0 | 0.00 | 0.33 | 0.00 | 91 | 1008.0 |
| 20260831231547 | 15 | 246 | 0.0 | 0.0 | 0.00 | 0.33 | 0.00 | 91 | 1008.0 |
| 20260831230044 | 15 | 247 | 0.0 | 4.8 | 0.00 | 0.33 | 0.00 | 91 | 1008.0 |
| 20260831224543 | 15 | 254 | 0.0 | 4.8 | 0.00 | 0.33 | 0.00 | 91 | 1007.9 |
| 20260831223051 | 15 | 216 | 3.2 | 6.4 | 0.00 | 0.33 | 0.00 | 91 | 1007.9 |
| 20260831221537 | 15 | 205 | 0.0 | 0.0 | 0.00 | 0.33 | 0.00 | 91 | 1007.9 |
| 20260831220032 | 15 | 204 | 0.0 | 0.0 | 0.00 | 0.33 | 0.00 | 91 | 1007.9 |
| 20260831214535 | 15 | 204 | 0.0 | 0.0 | 0.00 | 0.33 | 0.33 | 91 | 1008.0 |
| 20260831213034 | 15 | 204 | 0.0 | 0.0 | 0.00 | 0.33 | 0.33 | 91 | 1007.9 |
| 20260831211534 | 15 | 204 | 0.0 | 0.0 | 0.00 | 0.33 | 0.33 | 91 | 1007.8 |
| 20260831210036 | 15 | 204 | 0.0 | 0.0 | 0.00 | 0.33 | 0.33 | 91 | 1007.8 |
| 20260831204530 | 15 | 200 | 0.0 | 0.0 | 0.00 | 0.33 | 0.33 | 91 | 1007.7 |
| 20260831203056 | 15 | 200 | 0.0 | 0.0 | 0.03 | 0.33 | 0.33 | 91 | 1007.6 |
| 20260831201543 | 16 | 200 | 0.0 | 0.0 | 0.03 | 0.33 | 0.33 | 90 | 1007.4 |
| 20260831200030 | 16 | 200 | 0.0 | 0.0 | 0.03 | 0.33 | 0.33 | 90 | 1007.4 |
| 20260831194537 | 16 | 200 | 0.0 | 0.0 | 0.03 | 0.33 | 0.33 | 89 | 1007.2 |
| 20260831193112 | 16 | 200 | 0.0 | 0.0 | 0.00 | 0.33 | 0.33 | 89 | 1007.2 |
| 20260831191539 | 16 | 200 | 0.0 | 6.4 | 0.00 | 0.33 | 0.33 | 89 | 1007.3 |
| 20260831190016 | 16 | 225 | 0.0 | 8.0 | 0.00 | 0.33 | 0.33 | 88 | 1007.3 |
| 20260831184552 | 16 | 223 | 1.6 | 8.0 | 0.00 | 0.33 | 0.33 | 88 | 1007.3 |
| 20260831183148 | 16 | 223 | 0.0 | 4.8 | 0.00 | 0.33 | 0.33 | 87 | 1006.9 |
| 20260831181603 | 16 | 225 | 3.2 | 9.7 | 0.00 | 0.33 | 0.33 | 87 | 1006.9 |
| 20260831180147 | 16 | 208 | 1.6 | 8.0 | 0.00 | 0.33 | 0.33 | 88 | 1006.6 |
| 20260831174544 | 16 | 199 | 1.6 | 6.4 | 0.00 | 0.33 | 0.33 | 87 | 1006.6 |
| 20260831173145 | 17 | 208 | 3.2 | 9.7 | 0.00 | 0.33 | 0.33 | 87 | 1006.6 |
| 20260831171619 | 17 | 209 | 4.8 | 8.0 | 0.00 | 0.33 | 0.33 | 87 | 1006.5 |
| 20260831170042 | 17 | 244 | 3.2 | 11.3 | 0.00 | 0.33 | 0.33 | 87 | 1006.4 |
| 20260831164639 | 17 | 205 | 4.8 | 8.0 | 0.03 | 0.33 | 0.33 | 86 | 1006.5 |
| 20260831163040 | 17 | 202 | 3.2 | 6.4 | 0.05 | 0.33 | 0.33 | 86 | 1006.6 |
| 20260831161600 | 17 | 213 | 3.2 | 8.0 | 0.05 | 0.33 | 0.33 | 86 | 1006.7 |
| 20260831160031 | 17 | 175 | 3.2 | 8.0 | 0.05 | 0.33 | 0.33 | 86 | 1006.4 |
| 20260831154517 | 18 | 205 | 4.8 | 11.3 | 0.05 | 0.30 | 0.30 | 84 | 1006.4 |
| 20260831153013 | 18 | 192 | 4.8 | 12.9 | 0.03 | 0.28 | 0.28 | 79 | 1006.5 |
| 20260831151621 | 20 | 215 | 6.4 | 16.1 | 0.03 | 0.28 | 0.28 | 73 | 1006.4 |
| 20260831150044 | 21 | 213 | 8.0 | 17.7 | 0.03 | 0.28 | 0.28 | 69 | 1006.2 |
| 20260831144640 | 21 | 221 | 6.4 | 14.5 | 0.00 | 0.25 | 0.25 | 67 | 1006.2 |
| 20260831143048 | 21 | 213 | 9.7 | 24.1 | 0.00 | 0.25 | 0.25 | 66 | 1006.4 |
| 20260831141651 | 22 | 241 | 8.0 | 16.1 | 0.00 | 0.25 | 0.25 | 64 | 1006.4 |
| 20260831134526 | 21 | 212 | 4.8 | 14.5 | 0.00 | 0.28 | 0.25 | 70 | 1006.4 |
| 20260831133144 | 21 | 234 | 6.4 | 20.9 | 0.00 | 0.28 | 0.25 | 70 | 1006.4 |
| 20260831131600 | 21 | 203 | 8.0 | 17.7 | 0.00 | 0.28 | 0.25 | 70 | 1006.4 |
| 20260831130046 | 21 | 209 | 8.0 | 22.5 | 0.00 | 0.28 | 0.25 | 70 | 1006.3 |
| 20260831124539 | 21 | 216 | 11.3 | 22.5 | 0.00 | 0.28 | 0.25 | 70 | 1006.1 |
| 20260831123137 | 21 | 211 | 12.9 | 22.5 | 0.00 | 0.28 | 0.25 | 72 | 1006.2 |
| 20260831121546 | 21 | 208 | 9.7 | 24.1 | 0.00 | 0.28 | 0.25 | 73 | 1006.3 |
| 20260831120150 | 21 | 222 | 12.9 | 25.7 | 0.00 | 0.28 | 0.25 | 75 | 1006.5 |
| 20260831114556 | 21 | 182 | 12.9 | 24.1 | 0.00 | 0.33 | 0.25 | 77 | 1006.3 |
| 20260831113046 | 20 | 196 | 9.7 | 20.9 | 0.00 | 0.33 | 0.25 | 80 | 1006.3 |
| 20260831111642 | 20 | 222 | 11.3 | 16.1 | 0.00 | 0.33 | 0.25 | 82 | 1006.3 |
| 20260831110050 | 20 | 194 | 9.7 | 20.9 | 0.00 | 0.33 | 0.25 | 82 | 1006.3 |
| 20260831104515 | 19 | 199 | 8.0 | 22.5 | 0.05 | 0.33 | 0.25 | 86 | 1006.3 |
| 20260831103056 | 18 | 165 | 8.0 | 12.9 | 0.20 | 0.33 | 0.25 | 87 | 1006.5 |
| 20260831101540 | 18 | 193 | 3.2 | 9.7 | 0.20 | 0.33 | 0.25 | 91 | 1006.7 |
| 20260831100145 | 17 | 212 | 4.8 | 16.1 | 0.20 | 0.33 | 0.25 | 88 | 1006.9 |
| 20260831094643 | 17 | 221 | 8.0 | 20.9 | 0.18 | 0.36 | 0.23 | 88 | 1007.0 |
| 20260831093040 | 19 | 215 | 8.0 | 16.1 | 0.00 | 0.18 | 0.05 | 82 | 1006.9 |
| 20260831091518 | 20 | 193 | 6.4 | 16.1 | 0.00 | 0.18 | 0.05 | 82 | 1007.0 |
| 20260831090011 | 18 | 202 | 6.4 | 12.9 | 0.00 | 0.18 | 0.05 | 87 | 1007.1 |
| 20260831084512 | 18 | 173 | 6.4 | 16.1 | 0.00 | 0.18 | 0.05 | 87 | 1007.2 |
| 20260831083007 | 18 | 197 | 8.0 | 14.5 | 0.00 | 0.18 | 0.05 | 89 | 1007.2 |
| 20260831081508 | 17 | 168 | 8.0 | 19.3 | 0.00 | 0.18 | 0.05 | 91 | 1007.3 |
| 20260831080002 | 17 | 189 | 8.0 | 17.7 | 0.05 | 0.18 | 0.05 | 93 | 1007.3 |
| 20260831074502 | 17 | 163 | 4.8 | 12.9 | 0.05 | 0.18 | 0.05 | 94 | 1007.3 |
| 20260831073058 | 16 | 214 | 4.8 | 12.9 | 0.05 | 0.18 | 0.05 | 94 | 1007.3 |
| 20260831071555 | 16 | 174 | 4.8 | 12.9 | 0.05 | 0.18 | 0.05 | 93 | 1007.5 |
| 20260831070050 | 16 | 170 | 3.2 | 9.7 | 0.03 | 0.15 | 0.03 | 94 | 1007.7 |
| 20260831064548 | 15 | 190 | 3.2 | 6.4 | 0.00 | 0.13 | 0.00 | 94 | 1007.8 |
| 20260831063100 | 15 | 211 | 0.0 | 0.0 | 0.00 | 0.13 | 0.00 | 94 | 1007.8 |
| 20260831061543 | 14 | 213 | 0.0 | 0.0 | 0.00 | 0.13 | 0.00 | 94 | 1007.7 |
| 20260831060041 | 13 | 213 | 0.0 | 0.0 | 0.00 | 0.13 | 0.00 | 94 | 1007.7 |
| 20260831054539 | 13 | 213 | 0.0 | 0.0 | 0.00 | 0.13 | 0.00 | 94 | 1007.8 |
| 20260831053057 | 12 | 213 | 0.0 | 0.0 | 0.00 | 0.13 | 0.00 | 94 | 1007.9 |
| 20260831051537 | 11 | 213 | 0.0 | 0.0 | 0.00 | 0.13 | 0.00 | 93 | 1008.0 |
| 20260831050032 | 11 | 213 | 0.0 | 0.0 | 0.00 | 0.13 | 0.00 | 93 | 1008.0 |
| 20260831044612 | 10 | 213 | 0.0 | 0.0 | 0.00 | 0.15 | 0.00 | 93 | 1008.0 |
| 20260831043028 | 10 | 213 | 0.0 | 0.0 | 0.00 | 0.15 | 0.00 | 93 | 1008.2 |
| 20260831041533 | 10 | 213 | 0.0 | 0.0 | 0.00 | 0.15 | 0.00 | 92 | 1008.6 |
| 20260831040027 | 9 | 213 | 0.0 | 0.0 | 0.00 | 0.15 | 0.00 | 91 | 1008.4 |
| 20260831034523 | 9 | 213 | 0.0 | 0.0 | 0.00 | 0.15 | 0.00 | 92 | 1008.4 |
| 20260831033024 | 10 | 213 | 0.0 | 0.0 | 0.00 | 0.15 | 0.00 | 91 | 1008.4 |
| 20260831031531 | 10 | 213 | 0.0 | 0.0 | 0.00 | 0.15 | 0.00 | 92 | 1008.5 |